Wind_Speed
9 8 13 8 7 1 2 3 5 6 6 6 5 4 6 7 7 6 4 3 2 2 4 6 5 2 3 4 5 5 5 6 5 6 7 8 9 9 8 8 9 8 9
12 8 12 10 10 5 1 3 5 5 6 7 6 6 6 6 6 6 5 4 2 2 5 6 4 2 1 3 5 5 6 6 6 7 8 8 8 9 9 9 10 8 8
8 11 13 15 13 10 5 5 6 7 7 7 7 7 6 6 6 6 6 4 3 2 5 4 3 1 1 3 6 6 7 8 8 7 7 8 8 8 9 10 10 10 10
4 7 11 13 10 9 11 8 8 9 9 8 8 7 7 6 6 7 6 5 3 3 5 4 2 1 2 3 5 7 8 8 7 7 6 7 8 7 8 9 9 9 9
9 9 10 10 8 9 10 12 12 11 10 9 8 7 6 6 7 8 7 6 4 4 4 3 1 1 2 3 5 7 8 7 6 5 6 6 7 7 7 7 7 8 8
12 13 15 14 14 13 11 13 13 12 12 11 9 8 8 7 8 9 8 7 6 5 5 3 2 2 2 3 5 6 7 6 6 4 4 5 5 5 5 5 5 6 7
9 14 16 16 15 14 12 12 14 14 13 12 10 10 10 8 9 10 11 9 8 7 6 5 3 3 4 5 5 5 6 5 5 4 3 3 2 2 3 3 4 5 6
16 15 14 13 11 9 10 11 12 13 14 13 13 12 12 11 12 13 12 11 10 9 7 6 5 5 6 6 5 5 5 4 4 3 2 1 0 1 2 3 4 4 5
21 21 20 17 16 14 13 11 10 12 14 14 14 15 14 15 15 16 15 13 12 11 9 8 7 6 7 7 6 6 5 5 4 3 3 2 2 3 3 4 4 4 5
27 23 20 17 17 16 16 16 16 14 14 15 16 16 18 19 19 19 18 16 14 12 11 10 9 8 8 8 7 6 5 5 5 4 4 4 4 5 6 6 6 6 6
28 27 24 23 22 20 20 19 19 19 17 17 17 18 19 21 24 25 21 18 16 14 13 12 11 10 9 8 7 6 5 5 6 6 6 6 6 7 7 7 6 6 5
30 29 27 25 25 25 25 25 25 23 23 19 19 19 20 22 24 25 22 21 18 17 15 14 13 12 11 10 9 8 7 7 7 6 7 7 7 7 8 7 7 7 6
36 31 29 29 26 25 26 22 25 24 24 24 23 20 21 21 24 27 24 24 21 20 18 17 14 13 13 12 10 9 8 8 7 7 7 6 6 7 8 8 7 7 7
40 38 33 31 29 30 26 26 24 26 24 26 25 24 24 22 24 28 26 24 23 21 20 18 16 15 15 14 12 10 9 8 8 7 8 7 7 8 8 8 8 8 8
44 41 40 38 32 30 27 27 24 24 25 25 25 23 24 23 25 28 28 26 25 23 22 22 20 19 16 15 14 12 10 9 9 8 8 7 7 8 8 8 9 9 10
48 44 42 41 39 36 31 28 27 25 24 26 25 23 22 23 25 27 28 28 28 28 27 26 25 22 19 18 16 14 12 10 10 9 9 8 8 9 9 10 11 11 11
55 50 47 42 42 41 38 31 27 25 26 27 28 29 27 24 23 25 27 30 33 29 30 28 29 26 24 21 18 15 14 13 12 12 11 11 11 11 11 12 14 14 15
58 56 52 48 44 43 41 37 34 27 29 26 27 25 25 23 28 30 30 32 32 33 36 34 34 29 27 23 20 18 17 16 14 14 13 13 13 13 13 13 14 16 18
57 59 57 55 49 45 44 40 37 34 31 29 28 27 25 22 23 30 32 34 37 36 42 37 37 31 31 26 23 22 21 19 17 16 16 15 15 15 14 14 14 14 18
53 57 60 57 55 51 48 44 42 40 39 38 35 32 25 25 24 22 27 34 38 41 46 39 40 35 32 30 28 27 25 22 21 19 19 18 17 15 13 15 19 21 23
48 53 58 58 55 55 53 52 49 46 39 39 38 36 32 32 32 30 30 32 37 38 38 42 45 45 38 34 33 30 28 26 24 23 22 20 18 16 12 16 24 25 30
42 48 52 56 54 53 54 54 53 47 44 41 39 39 39 40 39 36 38 37 37 41 44 41 44 40 36 37 34 34 32 30 28 26 25 23 24 23 23 26 32 34 37
33 38 43 46 52 52 50 50 51 51 49 48 43 37 34 40 40 39 40 47 49 48 43 44 45 49 40 40 37 37 36 34 29 30 30 29 28 26 31 37 32 32 38
26 24 27 32 43 49 45 46 47 49 50 49 42 42 41 37 36 38 45 49 51 49 44 37 45 40 36 39 39 38 37 34 33 35 32 29 27 33 37 33 39 42 35
28 22 23 29 33 41 44 42 42 45 47 49 49 51 51 51 52 54 54 48 52 51 46 42 41 45 39 41 40 37 36 39 37 38 36 33 36 39 40 37 40 39 32
27 23 28 32 34 34 36 41 46 43 41 42 49 56 57 57 53 49 46 48 52 46 40 39 43 46 40 39 41 41 41 40 40 36 35 41 43 47 45 42 42 37 26
Wind_Direction
275 273 276 228 270 331 263 281 305 314 308 294 280 270 267 252 234 225 220 206 227 328 332 329 317 15 96 120 122 119 121 124 120 116 111 105 98 90 86 89 86 80 77
261 265 250 222 269 251 244 313 289 290 291 288 278 273 263 251 235 222 200 196 229 319 328 323 320 344 43 128 126 129 128 123 120 121 116 104 100 97 87 96 81 80 79
226 243 225 257 254 253 263 271 275 275 277 278 276 271 261 239 223 203 198 210 250 315 330 329 334 342 157 155 142 137 133 131 128 123 114 101 91 92 86 85 89 76 62
226 243 235 244 239 249 271 256 262 260 258 265 269 266 255 233 210 203 201 214 250 313 332 326 341 286 199 173 144 136 134 132 130 120 108 104 99 91 88 84 76 65 59
231 242 243 225 247 262 264 270 257 250 249 247 248 248 245 223 205 204 207 223 252 290 314 309 314 261 249 176 151 144 141 138 130 121 113 103 97 91 84 74 70 65 53
216 232 222 227 241 246 260 274 265 249 249 247 235 220 220 221 213 213 214 226 241 267 293 272 255 235 214 190 163 155 148 143 136 128 119 106 93 85 77 72 60 48 41
202 220 222 227 226 231 242 260 263 258 252 254 237 225 212 212 219 221 217 228 246 262 276 268 239 209 204 194 176 167 163 158 151 144 128 106 89 69 53 40 33 23 19
200 206 202 216 218 221 232 242 249 256 261 257 248 231 216 213 219 225 225 230 245 255 265 254 250 214 198 198 189 185 183 180 182 170 167 169 309 337 359 357 354 357 360
212 212 212 212 224 222 225 238 251 256 256 257 251 236 221 209 221 227 226 230 242 253 259 247 242 227 206 202 200 200 198 203 207 209 217 243 270 289 304 318 324 332 341
217 213 210 212 225 233 231 228 239 250 258 260 258 249 233 216 213 227 225 223 235 247 259 250 240 231 222 219 217 215 217 220 226 232 241 248 259 272 289 300 311 317 326
217 219 220 223 228 235 240 241 237 241 250 254 259 253 245 235 222 219 222 222 227 237 251 254 249 238 228 226 227 230 233 241 246 250 253 259 265 270 272 280 289 294 302
225 218 221 227 230 234 234 237 240 240 241 248 251 255 254 247 238 226 219 224 225 227 235 243 249 249 239 226 224 233 244 247 252 255 256 257 261 266 267 269 272 282 290
225 222 220 219 219 225 230 229 232 237 238 237 243 251 255 249 242 232 220 222 225 228 228 234 242 250 248 242 234 234 240 252 258 262 263 259 264 268 268 270 273 274 280
228 225 224 222 221 225 222 228 234 233 238 242 247 244 247 249 242 237 222 225 231 232 231 232 235 238 249 249 244 241 243 247 253 256 259 261 261 264 269 273 274 276 280
230 228 227 227 228 228 229 226 226 230 233 236 241 244 246 248 242 237 225 224 233 230 230 227 232 232 237 244 245 243 246 250 253 258 262 262 260 262 272 273 275 283 288
234 229 230 232 232 233 230 227 227 228 229 231 236 239 248 254 248 238 229 230 231 227 223 228 229 228 229 236 240 241 243 247 251 255 260 265 266 277 288 288 287 291 292
235 233 230 232 232 232 234 228 229 229 231 228 232 240 240 241 248 247 235 226 233 231 227 225 231 228 228 231 238 244 247 249 252 257 260 270 276 281 287 291 292 296 293
234 234 232 230 231 233 235 233 227 224 228 231 230 233 235 235 238 240 237 234 238 239 226 226 227 228 233 232 235 243 248 251 255 256 257 259 264 271 277 277 284 294 293
238 231 232 232 228 230 233 234 233 224 229 231 226 230 239 244 244 241 242 243 243 252 216 216 226 226 234 235 236 242 249 254 255 255 256 258 259 266 273 276 283 292 299
244 234 228 230 231 227 229 230 233 235 231 233 235 240 249 253 253 252 251 255 248 256 236 220 222 222 229 236 240 242 246 250 254 255 255 256 261 266 275 291 291 290 297
246 239 230 227 227 229 229 231 233 235 237 238 240 247 247 248 256 261 263 269 272 253 279 237 225 218 218 234 240 245 249 253 255 256 255 255 252 254 274 278 294 308 301
248 241 236 228 224 224 229 231 235 239 242 245 245 249 252 252 252 254 255 270 268 266 269 280 252 221 219 234 239 245 249 253 257 260 256 249 250 259 274 290 302 300 297
245 239 240 232 226 223 226 227 231 236 240 244 247 253 260 259 255 255 259 263 268 266 261 267 242 233 216 230 238 244 250 255 259 258 258 255 259 267 292 295 295 298 299
254 241 241 234 226 221 222 227 230 236 240 245 245 250 259 261 257 256 268 269 260 263 262 255 250 247 211 226 237 241 250 256 261 257 255 254 256 283 287 286 289 297 287
251 242 217 209 215 219 222 225 230 235 238 242 248 252 260 264 267 272 270 258 254 254 251 247 245 249 215 227 235 241 249 253 253 255 257 258 267 274 277 283 283 291 283
244 224 206 207 207 211 215 226 232 237 243 247 255 256 259 263 270 264 261 249 247 244 239 243 244 257 217 232 235 237 242 245 250 257 262 267 273 278 283 285 282 277 276
Height
3147 3147 3148 3149 3151 3152 3152 3153 3153 3154 3155 3156 3157 3158 3160 3160 3161 3161 3163 3163 3164 3165 3166 3166 3166 3166 3166 3166 3167 3167 3167 3168 3168 3169 3169 3169 3169 3170 3170 3170 3170 3170 3170
3146 3147 3147 3148 3150 3151 3152 3152 3152 3153 3155 3156 3156 3157 3158 3160 3161 3162 3162 3163 3164 3165 3166 3166 3166 3166 3166 3167 3167 3168 3168 3169 3169 3170 3170 3171 3171 3171 3171 3171 3171 3171 3171
3144 3146 3147 3148 3149 3149 3150 3151 3152 3153 3154 3155 3156 3157 3158 3159 3160 3161 3163 3163 3164 3166 3166 3166 3167 3167 3167 3167 3167 3168 3169 3169 3170 3171 3172 3173 3173 3173 3173 3173 3174 3173 3173
3142 3144 3146 3148 3148 3149 3149 3150 3151 3152 3152 3154 3155 3157 3157 3158 3160 3161 3163 3164 3165 3166 3166 3167 3167 3168 3168 3168 3168 3168 3169 3171 3172 3172 3174 3174 3174 3174 3175 3175 3175 3175 3174
3141 3143 3144 3146 3147 3148 3149 3149 3150 3151 3152 3153 3154 3156 3157 3159 3160 3161 3163 3164 3165 3166 3166 3167 3167 3168 3168 3169 3169 3170 3170 3171 3172 3173 3174 3175 3175 3176 3176 3176 3176 3176 3175
3138 3141 3142 3144 3145 3146 3147 3148 3149 3150 3151 3152 3153 3155 3156 3158 3160 3161 3162 3164 3165 3165 3166 3166 3167 3168 3168 3169 3170 3171 3171 3172 3173 3174 3175 3176 3176 3176 3176 3176 3176 3176 3176
3135 3137 3139 3141 3142 3144 3145 3146 3148 3149 3150 3151 3153 3154 3155 3157 3159 3161 3162 3163 3164 3165 3166 3167 3167 3168 3168 3169 3170 3171 3172 3173 3174 3175 3176 3176 3177 3177 3177 3177 3177 3177 3176
3132 3134 3136 3137 3139 3141 3143 3145 3146 3148 3149 3151 3152 3153 3155 3157 3158 3160 3162 3163 3164 3165 3166 3166 3167 3168 3168 3169 3170 3171 3172 3173 3174 3175 3176 3176 3177 3177 3177 3177 3177 3176 3176
3126 3130 3131 3134 3136 3138 3140 3143 3145 3146 3147 3149 3150 3152 3154 3156 3157 3158 3160 3162 3163 3164 3165 3166 3167 3168 3169 3169 3170 3171 3172 3173 3174 3175 3175 3176 3176 3176 3176 3176 3176 3176 3176
3122 3124 3127 3130 3132 3134 3136 3138 3141 3143 3145 3148 3149 3150 3152 3154 3155 3157 3158 3160 3161 3163 3165 3165 3166 3167 3168 3169 3170 3170 3171 3172 3173 3174 3175 3175 3175 3175 3176 3176 3176 3176 3175
3117 3120 3122 3125 3128 3130 3133 3135 3137 3139 3142 3144 3146 3148 3149 3151 3152 3154 3156 3158 3159 3162 3164 3165 3165 3166 3168 3168 3169 3170 3170 3171 3172 3173 3173 3174 3174 3174 3174 3174 3174 3174 3173
3112 3114 3117 3120 3123 3126 3128 3130 3133 3135 3137 3140 3143 3145 3146 3148 3150 3151 3154 3156 3157 3159 3161 3163 3164 3166 3167 3168 3168 3169 3169 3170 3170 3171 3171 3172 3172 3172 3172 3172 3172 3172 3172
3106 3109 3110 3114 3116 3119 3122 3124 3127 3130 3133 3136 3138 3140 3142 3144 3146 3148 3150 3152 3155 3156 3158 3160 3162 3165 3166 3167 3168 3168 3169 3169 3169 3170 3170 3170 3170 3170 3171 3171 3171 3170 3170
3098 3102 3104 3108 3111 3113 3115 3119 3122 3125 3128 3131 3135 3136 3137 3140 3142 3144 3148 3150 3153 3155 3157 3159 3161 3162 3165 3166 3167 3167 3167 3168 3168 3168 3168 3168 3168 3169 3169 3169 3169 3169 3168
3090 3095 3099 3102 3105 3108 3111 3113 3116 3120 3122 3126 3130 3132 3134 3136 3138 3141 3144 3147 3150 3152 3154 3156 3158 3160 3162 3164 3165 3165 3166 3166 3166 3167 3167 3167 3167 3167 3167 3167 3167 3167 3167
3082 3087 3091 3095 3099 3102 3105 3109 3111 3114 3117 3120 3124 3127 3129 3132 3134 3137 3140 3144 3146 3148 3150 3152 3154 3157 3158 3160 3162 3163 3163 3164 3165 3165 3165 3165 3165 3165 3166 3166 3166 3166 3165
3072 3078 3082 3087 3091 3095 3099 3103 3106 3110 3112 3114 3117 3121 3124 3127 3130 3133 3136 3139 3142 3142 3146 3148 3152 3153 3154 3157 3160 3161 3161 3161 3162 3163 3163 3163 3164 3164 3164 3164 3164 3164 3163
3061 3066 3073 3078 3082 3087 3092 3097 3100 3103 3107 3109 3113 3116 3119 3121 3124 3128 3131 3135 3137 3138 3140 3144 3147 3148 3152 3153 3156 3158 3158 3158 3159 3159 3160 3160 3160 3160 3160 3160 3160 3160 3159
3047 3056 3061 3067 3073 3079 3085 3089 3094 3096 3101 3104 3107 3111 3114 3116 3119 3122 3126 3129 3130 3132 3131 3137 3142 3143 3148 3150 3151 3153 3155 3155 3156 3156 3156 3156 3156 3155 3155 3155 3155 3155 3155
3033 3041 3049 3056 3063 3070 3076 3080 3085 3089 3094 3099 3102 3106 3110 3112 3115 3118 3120 3122 3125 3125 3126 3129 3136 3137 3142 3145 3146 3147 3149 3151 3151 3152 3152 3152 3152 3152 3151 3151 3151 3151 3150
3020 3024 3035 3043 3052 3059 3065 3071 3075 3080 3088 3092 3097 3101 3103 3107 3110 3112 3115 3116 3117 3119 3120 3121 3124 3128 3129 3140 3140 3143 3144 3145 3147 3147 3147 3147 3148 3147 3147 3147 3148 3145 3146
3008 3015 3022 3031 3040 3049 3056 3063 3069 3075 3079 3085 3088 3092 3097 3102 3105 3107 3109 3111 3113 3115 3117 3117 3118 3122 3126 3132 3134 3137 3138 3140 3142 3142 3142 3142 3142 3141 3141 3141 3141 3140 3139
2999 3006 3013 3022 3031 3039 3047 3054 3060 3065 3068 3074 3080 3087 3090 3092 3095 3099 3104 3106 3106 3107 3109 3110 3110 3113 3118 3126 3127 3130 3131 3133 3137 3136 3136 3136 3136 3136 3135 3135 3134 3133 3132
2996 3001 3007 3014 3022 3031 3040 3046 3052 3058 3063 3069 3074 3079 3081 3085 3087 3091 3094 3096 3096 3096 3098 3101 3107 3107 3111 3118 3120 3122 3126 3129 3129 3130 3130 3129 3129 3129 3128 3129 3127 3125 3123
2992 2995 3000 3007 3015 3023 3032 3039 3046 3051 3056 3061 3066 3071 3073 3076 3078 3080 3081 3083 3085 3087 3090 3094 3097 3100 3103 3109 3113 3117 3119 3120 3120 3121 3122 3122 3121 3121 3122 3120 3119 3118 3116
2987 2990 2996 3002 3009 3017 3025 3032 3038 3044 3049 3054 3058 3061 3064 3067 3069 3067 3068 3070 3075 3078 3081 3085 3088 3092 3094 3102 3104 3105 3108 3110 3110 3111 3111 3112 3112 3114 3112 3111 3111 3110 3109